Date,TemperatureHighF,TemperatureAvgF,TemperatureLowF,DewpointHighF,DewpointAvgF,DewpointLowF,HumidityHigh,HumidityAvg,HumidityLow,PressureMaxIn,PressureMinIn,WindSpeedMaxMPH,WindSpeedAvgMPH,GustSpeedMaxMPH,PrecipitationSumIn
2013-1-1,39,36,32,9,6,1,35,28,23,0.00,40.00,22,10,34,0.00
2013-1-2,49,39,32,5,3,1,27,22,15,0.00,40.00,16,8,25,0.00
2013-1-3,48,41,37,7,2,-4,25,19,15,0.00,40.00,10,6,17,0.00
2013-1-4,50,42,35,8,1,-6,22,17,14,0.00,40.00,5,1,9,0.00
2013-1-5,52,42,36,3,-1,-6,21,16,11,0.00,40.00,11,4,15,0.00
2013-1-6,45,37,32,33,20,-2,87,53,17,0.00,40.00,24,14,32,0.00
2013-1-7,55,42,32,26,11,4,79,31,14,0.00,40.00,36,20,50,0.00
2013-1-8,62,52,44,30,22,14,49,33,18,0.00,40.00,14,6,51,0.00
2013-1-9,59,51,44,26,22,20,42,33,24,0.00,40.00,27,10,42,0.00
2013-1-10,44,34,28,34,14,4,83,45,28,0.00,40.00,28,20,52,0.00
2013-1-11,39,30,25,14,9,-9,60,44,15,0.00,40.00,22,9,42,0.00
2013-1-12,38,29,24,9,4,-4,49,35,17,0.00,40.00,17,8,26,0.00
2013-1-13,36,28,21,5,-3,-6,38,25,18,0.00,40.00,13,7,25,0.00
2013-1-14,34,25,18,-6,-11,-20,33,21,9,0.00,40.00,16,6,25,0.00
2013-1-15,44,34,26,6,-6,-12,29,18,11,0.00,40.00,9,4,13,0.00
2013-1-16,53,42,34,12,5,-3,38,23,13,0.00,40.00,14,6,22,0.00
2013-1-17,52,47,42,2,-4,-10,18,12,7,0.00,40.00,14,10,22,0.00
2013-1-18,52,46,42,-6,-7,-10,12,10,8,0.00,40.00,13,8,22,0.00
2013-1-19,60,47,43,-6,-9,-16,11,9,4,0.00,40.00,13,8,21,0.00
2013-1-20,56,50,45,-10,-12,-16,9,7,5,0.00,40.00,15,8,19,0.00
2013-1-21,58,50,45,-10,-12,-19,9,7,4,0.00,40.00,15,9,27,0.00
2013-1-22,58,52,47,-3,-7,-14,10,9,6,0.00,40.00,11,5,18,0.00
2013-1-23,55,52,48,32,2,-7,53,13,9,0.00,40.00,12,4,23,0.00
2013-1-24,48,45,43,44,39,29,95,82,51,0.00,40.00,9,4,17,0.16
2013-1-25,49,46,43,44,42,40,95,87,77,0.00,40.00,14,10,22,0.14
2013-1-26,54,47,43,48,42,32,96,83,63,0.00,40.00,22,9,35,0.19
2013-1-27,44,39,32,36,25,12,89,59,27,0.00,40.00,25,14,36,0.01
2013-1-28,42,35,30,22,14,7,63,44,24,0.00,40.00,19,9,26,0.00
2013-1-29,50,42,33,27,22,14,58,45,34,0.00,40.00,18,8,25,0.00
2013-1-30,60,50,41,23,21,19,44,33,22,0.00,40.00,14,4,19,0.00
2013-1-31,62,54,46,22,21,18,39,28,20,0.00,40.00,7,4,12,0.00
2013-2-1,60,52,46,23,21,19,37,30,21,0.00,40.00,8,3,13,0.00
2013-2-2,58,53,49,22,19,12,33,27,18,0.00,40.00,11,5,19,0.00
2013-2-3,63,53,46,33,27,20,56,38,21,0.00,40.00,10,5,19,0.00
2013-2-4,65,53,48,25,14,1,38,22,8,0.00,40.00,12,7,19,0.00
2013-2-5,63,54,46,32,16,3,59,23,9,0.00,40.00,21,12,35,0.00
2013-2-6,60,50,42,32,10,-17,67,23,4,0.00,40.00,21,9,35,0.00
2013-2-7,57,46,33,26,11,-5,67,29,9,0.00,40.00,23,14,40,0.00
2013-2-8,40,35,31,27,22,17,84,61,42,0.00,40.00,22,15,34,0.00
2013-2-9,45,37,32,22,17,11,66,46,25,0.00,40.00,17,9,25,0.00
2013-2-10,50,39,32,21,10,3,53,32,16,0.00,40.00,17,8,28,0.00
2013-2-11,42,36,32,17,-2,-13,48,22,9,0.00,40.00,28,18,39,0.00
2013-2-12,54,42,34,-4,-8,-12,14,12,8,0.00,40.00,10,3,16,0.00
2013-2-13,61,47,41,4,0,-4,18,14,8,0.00,40.00,8,4,14,0.00
2013-2-14,58,50,43,15,12,2,31,21,14,0.00,40.00,25,11,39,0.00
2013-2-15,60,51,45,15,9,-3,29,20,8,0.00,40.00,17,13,30,0.00
2013-2-16,63,54,48,5,0,-7,16,11,6,0.00,40.00,13,9,20,0.00
2013-2-17,64,53,46,16,3,-27,25,14,2,0.00,40.00,17,8,24,0.00
2013-2-18,58,49,42,23,14,4,46,25,15,0.00,40.00,22,10,34,0.00
2013-2-19,44,38,29,31,26,10,96,67,28,0.00,40.00,28,19,39,0.00
2013-2-20,49,36,27,27,18,6,94,51,21,0.00,40.00,22,15,38,0.00
2013-2-21,45,37,30,20,8,-4,66,33,13,0.00,40.00,18,8,27,0.00
2013-2-22,55,44,36,19,7,-1,38,23,11,0.00,40.00,12,6,18,0.00
2013-2-23,55,44,36,21,15,2,55,32,17,0.00,40.00,45,19,61,0.00
2013-2-24,47,38,32,2,-7,-21,25,15,5,0.00,40.00,41,22,61,0.00
2013-2-25,55,45,37,9,-6,-13,23,12,6,0.00,40.00,18,10,26,0.00
2013-2-26,55,46,40,8,-2,-12,26,14,8,0.00,40.00,12,7,17,0.00
2013-2-27,56,45,37,1,-5,-13,21,12,6,0.00,40.00,11,6,17,0.00
2013-2-28,61,51,44,-5,-7,-11,12,9,5,0.00,40.00,9,5,16,0.00
2013-3-1,66,56,48,11,1,-6,16,11,8,0.00,40.00,13,7,21,0.00
2013-3-2,69,58,53,17,9,1,21,14,8,0.00,40.00,15,8,24,0.00
2013-3-3,61,54,47,30,23,15,48,30,20,0.00,40.00,29,13,42,0.00
2013-3-4,68,53,44,29,21,9,54,32,11,0.00,40.00,19,10,26,0.00
2013-3-5,63,53,43,30,23,14,51,32,19,0.00,40.00,28,14,47,0.00
2013-3-6,52,43,35,33,29,24,87,59,34,0.00,40.00,31,16,47,0.00
2013-3-7,47,40,35,34,28,23,90,65,39,0.00,40.00,27,22,40,0.00
2013-3-8,38,34,30,32,30,26,96,85,68,0.00,40.00,18,10,28,0.11
2013-3-9,56,44,35,29,23,4,72,47,18,0.00,40.00,31,13,45,0.03
2013-3-10,63,51,41,4,-3,-7,18,11,6,0.00,40.00,31,12,45,0.00
2013-3-11,69,58,49,5,-2,-12,16,9,4,0.00,40.00,9,4,12,0.00
2013-3-12,72,61,52,3,0,-5,11,8,5,0.00,40.00,11,5,19,0.00
2013-3-13,80,66,58,9,6,0,12,9,5,0.00,40.00,10,3,14,0.00
2013-3-14,80,70,63,19,11,7,15,10,6,0.00,40.00,14,7,19,0.00
2013-3-15,79,68,61,30,19,-10,22,15,3,0.00,40.00,19,13,34,0.00
2013-3-16,77,65,58,27,17,3,29,17,6,0.00,40.00,22,10,35,0.00
2013-3-17,72,61,54,18,8,-14,24,13,3,0.00,40.00,22,10,32,0.00
2013-3-18,69,59,53,19,7,-1,20,13,6,0.00,40.00,19,11,27,0.00
2013-3-19,72,60,52,25,15,7,28,18,8,0.00,40.00,18,10,41,0.00
2013-3-20,64,56,51,33,26,11,50,32,13,0.00,40.00,19,14,46,0.00
2013-3-21,69,56,49,27,20,4,43,27,8,0.00,40.00,18,12,37,0.00
2013-3-22,67,54,46,25,15,-7,37,23,6,0.00,40.00,24,12,33,0.00
2013-3-23,64,54,46,15,-4,-26,23,10,2,0.00,40.00,19,11,25,0.00
2013-3-24,67,54,45,15,-2,-20,20,11,3,0.00,40.00,14,8,19,0.00
2013-3-25,67,58,51,18,12,-7,24,17,6,0.00,40.00,16,8,28,0.00
2013-3-26,67,56,51,28,13,-1,39,19,7,0.00,40.00,19,14,35,0.00
2013-3-27,68,57,51,28,25,15,40,30,13,0.00,40.00,19,11,31,0.00
2013-3-28,68,62,56,28,21,7,30,22,12,0.00,40.00,17,13,32,0.00
2013-3-29,72,59,51,33,22,2,47,26,7,0.00,40.00,16,10,23,0.00
2013-3-30,71,61,54,34,19,-100,43,23,10,0.00,40.00,18,13,28,0.00
2013-3-31,62,52,45,43,35,24,85,54,25,0.00,40.00,28,17,42,0.00
2013-4-1,65,52,42,37,27,13,66,42,13,0.00,40.00,18,12,34,0.00
2013-4-2,72,56,48,34,24,6,43,30,9,0.00,40.00,15,9,21,0.00
2013-4-3,76,64,55,28,22,9,32,22,9,0.00,40.00,12,6,21,0.00
2013-4-4,72,61,52,37,29,23,57,31,18,0.00,40.00,23,14,36,0.00
2013-4-5,68,58,50,35,29,22,51,35,17,0.00,40.00,22,11,34,0.00
2013-4-6,70,58,51,35,26,17,50,31,14,0.00,40.00,18,9,30,0.00
2013-4-7,71,59,52,34,25,14,47,29,16,0.00,40.00,27,12,37,0.00
2013-4-8,53,46,39,33,23,3,69,41,19,0.00,40.00,46,20,61,0.00
2013-4-9,60,47,39,11,1,-22,31,18,3,0.00,40.00,48,37,64,0.00
2013-4-10,75,58,47,15,2,-11,17,11,3,0.00,40.00,45,20,61,0.00
2013-4-11,75,61,54,30,19,3,31,20,6,0.00,40.00,18,9,31,0.00
2013-4-12,77,63,55,26,20,10,26,21,8,0.00,40.00,16,11,28,0.00
2013-4-13,75,63,56,30,22,5,36,22,7,0.00,40.00,26,17,49,0.00
2013-4-14,76,62,56,29,25,15,31,25,12,0.00,40.00,26,15,52,0.00
2013-4-15,62,51,44,32,22,7,57,33,15,0.00,40.00,39,22,53,0.00
2013-4-16,54,43,32,23,14,-1,62,32,11,0.00,40.00,42,17,53,0.00
2013-4-17,55,42,36,10,2,-11,32,20,7,0.00,40.00,39,27,49,0.00
2013-4-18,61,49,39,-2,-8,-16,16,10,4,0.00,40.00,23,12,31,0.00
2013-4-19,71,58,50,15,-2,-15,17,9,3,0.00,40.00,15,6,26,0.00
2013-4-20,78,62,55,28,17,-5,28,19,4,0.00,40.00,20,12,27,0.00
2013-4-21,82,64,57,26,20,4,27,19,5,0.00,40.00,18,8,26,0.00
2013-4-22,83,67,61,25,18,5,24,16,5,0.00,40.00,18,12,34,0.00
2013-4-23,71,64,56,21,3,-16,18,10,3,0.00,40.00,27,13,41,0.00
2013-4-24,72,63,57,22,0,-26,25,11,2,0.00,40.00,20,11,31,0.00
2013-4-25,78,64,57,23,12,-4,26,14,5,0.00,40.00,15,9,26,0.00
2013-4-26,79,66,57,28,16,-31,29,18,1,0.00,40.00,13,7,22,0.00
2013-4-27,84,71,64,22,11,-14,20,12,2,0.00,40.00,13,9,31,0.00
2013-4-28,87,72,66,23,15,-12,19,12,2,0.00,40.00,13,9,24,0.00
2013-4-29,88,73,67,30,20,-5,25,15,3,0.00,40.00,15,9,27,0.00
2013-4-30,82,70,64,34,26,0,31,22,4,0.00,40.00,17,12,31,0.00
2013-5-1,74,68,55,34,-20,-100,30,6,1,0.00,40.00,36,17,48,0.00
2013-5-2,74,67,53,-19,-42,-100,4,0,1,0.00,40.00,19,12,39,0.00
2013-5-3,81,72,59,9,-41,-100,9,1,1,0.00,40.00,13,7,22,0.00
2013-5-4,80,67,57,28,12,-19,29,14,2,0.00,40.00,28,15,45,0.00
2013-5-5,57,51,43,38,30,16,79,47,23,0.00,40.00,36,27,50,0.00
2013-5-6,57,48,42,44,38,31,94,72,37,0.00,40.00,28,19,44,0.03
2013-5-7,60,51,42,44,34,28,79,57,31,0.00,40.00,25,12,35,0.03
2013-5-8,70,56,45,38,32,19,74,45,14,0.00,40.00,12,7,18,0.02
2013-5-9,71,59,52,48,36,25,80,45,18,0.00,40.00,35,9,55,0.02
2013-5-10,80,64,55,41,28,-100,56,33,9,0.00,40.00,20,11,43,0.00
2013-5-11,86,70,67,26,18,-100,19,15,6,0.00,40.00,9,6,20,0.00
2013-5-12,90,76,71,30,24,5,21,15,4,0.00,40.00,16,5,25,0.00
2013-5-13,92,79,73,30,22,0,20,13,3,0.00,40.00,17,6,27,0.00
2013-5-14,83,73,65,32,11,-100,25,13,1,0.00,40.00,30,15,48,0.00
2013-5-15,88,72,63,32,23,9,28,18,7,0.00,40.00,20,10,33,0.00
2013-5-16,79,61,55,34,7,-100,45,18,7,0.00,40.00,21,14,38,0.00
2013-5-17,74,61,52,37,30,-100,55,36,14,0.00,40.00,21,13,41,0.00
2013-5-18,77,64,55,29,22,11,36,22,8,0.00,40.00,16,10,27,0.00
2013-5-19,82,68,60,25,17,4,23,15,5,0.00,40.00,24,10,35,0.00
2013-5-20,79,67,60,22,10,-3,17,11,4,0.00,40.00,16,9,26,0.00
2013-5-21,82,69,62,19,14,6,16,12,6,0.00,40.00,20,13,35,0.00
2013-5-22,70,61,50,29,19,3,34,21,9,0.00,40.00,34,20,49,0.00
2013-5-23,70,55,48,19,7,-7,29,17,5,0.00,40.00,30,18,43,0.00
2013-5-24,76,61,53,25,11,-32,30,16,1,0.00,40.00,23,10,33,0.00
2013-5-25,78,61,49,25,17,0,38,21,5,0.00,40.00,22,16,34,0.00
2013-5-26,77,62,52,33,21,13,38,23,10,0.00,40.00,21,14,32,0.00
2013-5-27,77,65,56,32,25,15,37,24,10,0.00,40.00,24,14,34,0.00
2013-5-28,78,66,55,39,33,28,43,31,16,0.00,40.00,20,11,31,0.00
2013-5-29,77,66,60,38,34,30,38,31,18,0.00,40.00,21,11,35,0.00
2013-5-30,85,70,61,38,28,4,40,25,5,0.00,40.00,22,12,39,0.00
2013-5-31,87,73,66,30,17,3,25,13,4,0.00,40.00,22,11,37,0.00
2013-6-1,95,82,73,18,-17,-100,11,6,4,0.00,40.00,11,5,16,0.00
2013-6-2,90,80,71,32,20,-1,24,13,3,0.00,40.00,20,15,35,0.00
2013-6-3,90,72,66,35,28,9,28,21,5,0.00,40.00,17,11,27,0.00
2013-6-4,91,75,67,39,31,3,34,22,4,0.00,40.00,19,10,35,0.00
2013-6-5,97,80,68,39,28,4,34,18,3,0.00,40.00,15,8,27,0.00
2013-6-6,97,84,71,34,18,-19,26,12,1,0.00,40.00,21,9,30,0.00
2013-6-7,102,86,73,36,14,-19,26,11,1,0.00,40.00,14,9,22,0.00
2013-6-8,104,92,82,36,-5,-100,19,5,1,0.00,40.00,21,11,36,0.00
2013-6-9,94,81,71,41,9,-100,30,13,1,0.00,40.00,31,16,44,0.00
2013-6-10,79,70,64,41,14,-8,39,13,4,0.00,40.00,25,16,41,0.00
2013-6-11,90,76,64,29,22,4,24,15,4,0.00,40.00,21,9,36,0.00
2013-6-12,88,77,70,33,24,-2,24,15,3,0.00,40.00,25,13,43,0.00
2013-6-13,83,72,63,34,17,0,33,15,4,0.00,40.00,32,18,40,0.00
2013-6-14,88,77,63,24,-26,-100,19,7,1,0.00,40.00,20,12,34,0.00
2013-6-15,86,73,63,25,2,-100,23,12,2,0.00,40.00,23,15,37,0.00
2013-6-16,87,73,64,25,15,3,18,11,4,0.00,40.00,19,12,28,0.00
2013-6-17,90,72,66,30,22,-1,25,16,3,0.00,40.00,21,12,34,0.00
2013-6-18,85,73,62,30,20,-13,26,15,2,0.00,40.00,21,14,37,0.00
2013-6-19,83,67,54,33,19,0,41,19,4,0.00,40.00,22,14,46,0.00
2013-6-20,81,63,59,20,16,4,22,17,5,0.00,40.00,20,13,36,0.00
2013-6-22,81,75,69,19,16,11,15,11,7,0.00,40.00,12,8,21,0.00
2013-6-23,78,68,64,31,27,19,28,22,12,0.00,40.00,27,13,43,0.00
2013-6-24,75,66,58,45,37,29,51,34,25,0.00,40.00,26,19,44,0.00
2013-6-25,84,70,60,45,42,38,53,38,20,0.00,40.00,24,14,37,0.00
2013-6-26,92,75,66,50,44,28,54,36,10,0.00,40.00,21,12,31,0.00
2013-6-27,96,78,69,53,43,28,56,32,9,0.00,40.00,16,12,27,0.00
2013-6-28,99,87,79,43,36,16,27,18,5,0.00,40.00,14,9,26,0.00
2013-6-29,100,84,77,45,36,21,32,20,6,0.00,40.00,13,11,23,0.00
2013-6-30,91,86,82,31,27,18,16,12,7,0.00,40.00,11,7,18,0.00
2013-7-1,98,85,77,40,32,17,23,16,7,0.00,40.00,19,14,29,0.00
2013-7-2,97,85,78,41,35,29,26,18,9,0.00,40.00,17,10,29,0.00
2013-7-3,97,85,77,37,33,25,23,16,8,0.00,40.00,22,13,27,0.00
2013-7-4,100,90,84,42,33,28,23,14,8,0.00,40.00,17,12,31,0.00
2013-7-5,93,84,78,44,41,35,29,23,13,0.00,40.00,16,10,25,0.00
2013-7-6,91,82,75,34,26,18,21,14,7,0.00,40.00,19,13,36,0.00
2013-7-7,93,82,76,25,21,14,15,11,6,0.00,40.00,12,10,23,0.00
2013-7-8,88,76,76,13,8,-100,8,8,3,0.00,40.00,15,9,32,0.00
2013-7-9,81,78,76,11,9,6,8,7,6,0.00,40.00,14,12,22,0.00
2013-7-10,97,81,80,34,18,-100,19,11,5,0.00,40.00,13,8,21,0.00
2013-7-11,80,76,71,52,40,34,50,29,19,0.00,40.00,17,10,26,0.00
2013-7-12,86,76,70,37,27,5,27,18,5,0.00,40.00,17,10,29,0.00
2013-7-13,96,76,70,23,18,13,16,11,5,0.00,40.00,18,13,34,0.00
2013-7-14,95,89,78,24,21,18,12,9,6,0.00,40.00,14,9,25,0.00
2013-7-15,81,78,74,22,20,14,13,12,8,0.00,40.00,12,10,19,0.00
2013-7-16,87,78,70,20,11,-3,14,9,3,0.00,40.00,21,14,36,0.00
2013-7-17,91,74,65,31,12,-100,22,14,3,0.00,40.00,14,9,20,0.00
2013-7-18,94,81,72,26,23,17,16,12,6,0.00,40.00,14,9,18,0.00
2013-7-19,86,83,78,23,22,21,12,10,9,0.00,40.00,16,11,26,0.00
2013-7-20,94,82,72,39,31,23,23,16,10,0.00,40.00,20,15,29,0.00
2013-7-21,90,80,71,57,46,34,58,32,20,0.00,40.00,22,12,28,0.00
2013-7-22,89,75,68,58,53,48,67,48,25,0.00,40.00,14,7,27,0.52
2013-7-23,89,77,64,61,52,43,88,46,24,0.00,40.00,27,8,35,0.04
2013-7-24,90,79,73,50,45,33,45,31,17,0.00,40.00,14,6,21,0.00
2013-7-25,86,80,75,42,38,33,28,24,17,0.00,40.00,14,8,20,0.00
2013-7-26,87,81,77,48,42,32,35,26,17,0.00,40.00,16,8,22,0.00
2013-7-27,90,79,68,57,49,43,67,38,22,0.00,40.00,19,9,25,0.00
2013-7-28,90,78,73,52,45,29,43,33,13,0.00,40.00,16,6,29,0.00
2013-7-29,84,74,70,40,36,26,30,26,15,0.00,40.00,16,5,21,0.00
2013-7-30,84,76,71,38,34,28,27,22,13,0.00,40.00,21,12,31,0.00
2013-7-31,90,79,71,36,23,-2,26,15,3,0.00,40.00,18,14,31,0.00
2013-8-1,89,74,66,35,23,15,32,16,7,0.00,40.00,21,14,36,0.00
2013-8-2,84,70,65,31,23,10,25,18,6,0.00,40.00,18,11,29,0.00
2013-8-3,84,69,63,20,16,9,19,14,6,0.00,40.00,18,10,27,0.00
2013-8-4,91,79,70,20,-19,-100,13,7,6,0.00,40.00,18,13,28,0.00
2013-8-5,89,76,71,27,16,-2,19,11,3,0.00,40.00,19,13,29,0.00
2013-8-6,87,74,66,32,24,16,24,17,7,0.00,40.00,22,16,34,0.00
2013-8-7,85,71,62,39,20,-100,41,21,7,0.00,40.00,24,17,40,0.00
2013-8-8,83,69,61,37,24,8,37,21,6,0.00,40.00,24,16,39,0.00
2013-8-9,82,66,59,36,31,2,37,29,5,0.00,40.00,16,10,26,0.00
2013-8-10,83,71,62,35,30,18,32,23,9,0.00,40.00,16,10,26,0.00
2013-8-11,86,73,65,37,28,11,31,20,6,0.00,40.00,12,8,23,0.00
2013-8-12,87,74,67,31,24,11,26,17,6,0.00,40.00,13,9,21,0.00
2013-8-13,92,73,70,25,16,-100,17,12,5,0.00,40.00,13,7,21,0.00
2013-8-14,84,76,72,27,14,-100,19,10,7,0.00,40.00,9,6,14,0.00
2013-8-15,94,63,76,25,-16,-100,12,7,7,0.00,40.00,17,10,27,0.00
2013-8-16,92,83,77,39,30,25,25,16,11,0.00,40.00,17,12,32,0.00
2013-8-17,86,75,72,38,31,-100,27,21,9,0.00,40.00,16,13,27,0.00
2013-8-18,98,81,70,48,32,20,39,19,10,0.00,40.00,41,12,67,0.00
2013-8-19,88,73,65,54,40,-100,65,37,23,0.00,40.00,20,10,34,0.62
2013-8-20,91,79,73,41,34,-100,29,21,7,0.00,40.00,19,9,29,0.13
2013-8-21,76,76,76,31,31,31,19,19,19,0.00,40.00,18,18,24,0.00
2013-8-22,84,76,74,33,30,19,22,19,9,0.00,40.00,18,16,30,0.00
2013-8-23,80,73,69,36,30,19,29,21,10,0.00,40.00,16,13,28,0.00
2013-8-24,83,70,68,35,26,-100,29,20,6,0.00,40.00,17,12,24,0.00
2013-8-25,86,71,66,58,33,11,73,29,6,0.00,40.00,25,11,33,0.00
2013-8-26,84,72,62,59,52,47,81,51,31,0.00,40.00,17,8,29,0.00
2013-8-27,82,71,66,57,55,51,71,59,37,0.00,40.00,8,4,14,0.00
2013-8-28,89,83,77,47,42,36,28,24,21,0.00,40.00,15,10,24,0.00
2013-8-29,88,79,75,56,42,36,44,27,22,0.00,40.00,20,14,30,0.00
2013-8-30,91,80,73,57,50,42,53,36,25,0.00,40.00,17,11,38,0.00
2013-8-31,88,74,71,55,45,-100,53,41,21,0.00,40.00,20,16,29,0.00
2013-9-1,88,77,69,51,46,39,49,34,19,0.00,40.00,20,12,30,0.00
2013-9-2,88,76,70,52,46,35,51,37,15,0.00,40.00,17,13,26,0.00
2013-9-3,82,76,71,50,46,39,47,36,22,0.00,40.00,13,11,22,0.00
2013-9-4,84,77,74,45,42,40,33,29,22,0.00,40.00,26,11,34,0.00
2013-9-5,80,77,73,41,38,35,29,25,20,0.00,40.00,14,12,22,0.00
2013-9-6,91,78,75,38,34,27,24,20,10,0.00,40.00,15,10,27,0.00
2013-9-7,84,75,68,47,35,-100,34,25,16,0.00,40.00,20,13,32,0.00
2013-9-8,85,74,66,48,40,30,52,30,16,0.00,40.00,28,12,47,0.00
2013-9-9,83,73,68,45,40,28,42,31,16,0.00,40.00,15,6,28,0.00
2013-9-10,78,71,63,48,34,27,58,28,15,0.00,40.00,13,9,23,0.00
2013-9-11,77,70,65,35,34,30,30,26,19,0.00,40.00,13,8,19,0.00
2013-9-12,84,71,66,40,34,26,30,26,12,0.00,40.00,13,9,19,0.00
2013-9-13,89,74,69,38,35,30,30,25,12,0.00,40.00,10,5,17,0.00
2013-9-14,85,75,72,38,33,-100,28,23,13,0.00,40.00,10,6,15,0.00
2013-9-15,90,79,76,34,31,22,22,18,9,0.00,40.00,10,8,17,0.00
2013-9-16,82,76,72,29,26,20,19,16,10,0.00,40.00,17,12,26,0.00
2013-9-17,83,72,61,40,25,8,45,19,6,0.00,40.00,27,19,40,0.00
2013-9-18,74,64,61,40,32,16,45,32,11,0.00,40.00,22,12,38,0.00
2013-9-19,78,68,63,20,11,6,14,11,6,0.00,40.00,18,13,24,0.00
2013-9-20,85,73,64,31,18,8,29,14,6,0.00,40.00,16,9,33,0.00
2013-9-21,70,62,53,38,32,-100,52,34,23,0.00,40.00,24,14,38,0.00
2013-9-22,69,57,49,36,27,14,52,33,12,0.00,40.00,19,11,33,0.00
2013-9-23,75,64,59,28,22,17,29,21,11,0.00,40.00,13,6,17,0.00
2013-9-24,80,69,62,34,21,3,32,17,5,0.00,40.00,22,14,37,0.00
2013-9-25,66,58,50,43,32,20,71,39,20,0.00,40.00,31,23,45,0.00
2013-9-26,63,53,46,24,18,10,37,26,12,0.00,40.00,21,10,37,0.00
2013-9-27,66,53,46,19,14,6,32,22,9,0.00,40.00,26,16,35,0.00
2013-9-28,67,59,58,8,-1,-100,13,10,8,0.00,40.00,11,6,16,0.00
2013-9-29,77,66,60,18,11,1,19,12,7,0.00,40.00,16,13,26,0.00
2013-9-30,85,73,63,27,17,11,18,12,7,0.00,40.00,14,9,26,0.00
2013-10-1,76,67,60,42,38,33,48,36,22,0.00,40.00,23,17,31,0.00
2013-10-2,78,62,55,43,37,21,59,41,12,0.00,40.00,28,17,38,0.00
2013-10-3,74,60,55,32,17,3,37,20,8,0.00,40.00,24,15,34,0.00
2013-10-4,59,52,46,3,0,-5,16,12,7,0.00,40.00,26,23,45,0.00
2013-10-5,61,56,50,9,4,-1,18,13,8,0.00,40.00,23,14,36,0.00
2013-10-6,66,62,57,1,-4,-8,9,7,5,0.00,40.00,11,5,19,0.00
2013-10-7,65,64,62,6,-1,-10,10,8,5,0.00,40.00,20,9,32,0.00
2013-10-8,75,61,54,32,12,-3,43,17,5,0.00,40.00,21,13,31,0.00
2013-10-9,54,46,40,39,34,25,80,64,35,0.00,40.00,31,22,46,0.00
2013-10-10,63,52,41,35,29,26,74,44,26,0.00,40.00,15,9,25,0.00
2013-10-11,68,57,49,30,25,17,44,31,16,0.00,40.00,14,7,22,0.00
2013-10-12,69,56,51,29,20,-100,39,27,10,0.00,40.00,18,11,29,0.00
2013-10-13,66,57,49,33,25,14,52,31,13,0.00,40.00,21,10,36,0.00
2013-10-14,66,55,47,26,19,13,41,26,13,0.00,40.00,17,10,24,0.00
2013-10-15,65,55,49,20,15,5,30,20,11,0.00,40.00,16,9,26,0.00
2013-10-16,70,57,49,11,7,2,19,14,7,0.00,40.00,13,6,23,0.00
2013-10-17,65,58,53,11,6,2,15,12,10,0.00,40.00,10,5,11,0.00
2013-10-18,64,58,55,8,5,-1,13,12,7,0.00,40.00,11,8,17,0.10
2013-10-19,67,60,59,2,-3,-100,9,8,7,0.00,40.00,12,5,18,0.10
2013-10-20,69,62,58,5,0,-3,9,8,6,0.00,40.00,13,10,17,0.00
2013-10-21,75,65,60,5,1,-1,9,8,5,0.00,40.00,12,9,16,0.00
2013-10-22,68,65,61,6,4,2,10,9,8,0.00,40.00,9,7,14,0.00
2013-10-23,71,64,60,8,6,4,12,10,7,0.00,40.00,10,7,18,0.00
2013-10-24,74,65,61,11,7,3,11,10,6,0.00,40.00,13,7,21,0.00
2013-10-25,73,67,59,13,8,2,16,10,6,0.00,40.00,10,7,15,0.00
2013-10-26,73,66,64,13,3,-100,13,9,6,0.00,40.00,9,4,14,0.00
2013-10-27,72,63,56,30,16,7,37,17,8,0.00,40.00,28,8,40,0.00
2013-10-28,52,44,38,35,29,22,88,55,37,0.00,40.00,28,19,49,0.00
2013-10-29,54,44,36,35,30,22,89,62,32,0.00,40.00,19,11,31,0.00
2013-10-30,55,45,39,28,22,12,56,41,20,0.00,40.00,9,6,13,0.00
2013-10-31,61,52,46,24,15,5,39,24,11,0.00,40.00,6,4,13,0.00
2013-11-1,66,57,52,19,12,9,23,17,13,0.00,40.00,11,5,18,0.00
2013-11-2,67,56,53,22,14,-100,28,20,11,0.00,40.00,19,8,29,0.00
2013-11-3,68,56,48,26,17,11,42,22,13,0.00,40.00,19,9,27,0.00
2013-11-4,57,51,44,25,17,8,44,27,14,0.00,40.00,20,9,28,0.00
2013-11-5,51,46,40,9,1,-7,24,16,9,0.00,40.00,25,10,31,0.00
2013-11-6,60,51,44,1,-4,-6,12,10,7,0.00,40.00,9,5,14,0.00
2013-11-7,67,58,54,5,2,0,12,10,7,0.00,40.00,15,9,18,0.00
2013-11-8,61,56,52,8,4,2,15,12,10,0.00,40.00,12,5,18,0.00
2013-11-9,65,56,53,5,-1,-100,13,10,6,0.00,40.00,7,2,10,0.00
2013-11-10,62,58,54,5,2,0,12,10,9,0.00,40.00,8,4,12,0.00
2013-11-11,63,58,54,5,3,0,12,10,8,0.00,40.00,10,8,13,0.00
2013-11-12,68,62,61,3,1,-2,9,8,6,0.00,40.00,7,3,12,0.00
2013-11-13,67,62,58,8,3,0,12,9,8,0.00,40.00,12,6,16,0.00
2013-11-14,70,61,57,17,13,8,21,16,9,0.00,40.00,20,12,34,0.00
2013-11-15,64,53,47,32,24,10,52,33,12,0.00,40.00,18,13,34,0.00
2013-11-16,59,47,39,34,26,-100,76,48,22,0.00,40.00,24,15,36,0.00
2013-11-17,59,50,42,32,26,23,52,41,26,0.00,40.00,8,5,16,0.00
2013-11-18,59,51,46,34,32,29,59,48,33,0.00,40.00,18,8,27,0.00
2013-11-19,58,50,44,33,30,27,61,46,31,0.00,40.00,15,6,24,0.00
2013-11-20,63,52,45,42,35,28,82,53,31,0.00,40.00,22,11,30,0.00
2013-11-21,56,44,35,43,38,29,96,81,45,0.00,40.00,37,16,46,0.25
2013-11-22,36,33,32,32,31,28,97,93,76,0.00,40.00,49,36,62,0.01
2013-11-23,41,36,33,35,31,-100,97,84,68,0.00,40.00,28,14,39,0.02
2013-11-24,50,42,35,33,28,21,85,59,32,0.00,40.00,7,2,13,0.01
2013-11-25,57,47,41,32,24,18,56,40,25,0.00,40.00,9,4,15,0.00
2013-11-26,55,50,46,26,21,16,41,32,25,0.00,40.00,11,8,18,0.00
2013-11-27,55,49,45,30,26,21,52,40,32,0.00,40.00,10,8,17,0.00
2013-11-28,51,46,42,29,27,22,57,47,38,0.00,40.00,12,9,21,0.00
2013-11-29,52,47,43,28,26,22,50,43,36,0.00,40.00,12,8,20,0.00
2013-11-30,57,50,46,26,20,-100,42,32,24,0.00,40.00,7,4,12,0.00
2013-12-1,63,53,47,21,15,10,35,23,14,0.00,40.00,9,3,13,0.00
2013-12-2,63,56,51,13,9,1,20,16,10,0.00,40.00,22,10,37,0.00
2013-12-3,58,48,35,39,30,4,85,54,11,0.00,40.00,25,16,41,0.00
2013-12-4,38,33,27,22,8,2,59,36,25,0.00,40.00,21,8,31,0.00
2013-12-5,39,32,27,11,6,3,44,34,26,0.00,40.00,9,5,16,0.00
2013-12-6,39,32,27,19,8,-13,50,38,12,0.00,40.00,23,11,33,0.00
2013-12-7,36,31,28,30,14,-100,89,52,34,0.00,40.00,39,19,71,0.00
2013-12-8,34,29,25,11,8,5,51,42,33,0.00,40.00,12,6,19,0.00
2013-12-9,34,29,25,9,-2,-11,47,27,15,0.00,40.00,12,10,23,0.00
2013-12-10,43,36,27,-2,-6,-8,22,17,12,0.00,40.00,14,6,21,0.00
2013-12-11,45,41,35,7,2,-5,23,19,16,0.00,40.00,15,10,22,0.00
2013-12-12,56,46,37,11,8,5,28,22,15,0.00,40.00,15,8,21,0.00
2013-12-13,52,46,39,13,9,7,29,22,17,0.00,40.00,13,6,18,0.00
2013-12-14,52,45,41,17,14,-100,36,28,22,0.00,40.00,17,9,25,0.00
2013-12-15,61,51,44,15,12,7,29,22,13,0.00,40.00,12,7,18,0.00
2013-12-16,62,56,50,14,12,10,21,18,14,0.00,40.00,11,7,16,0.00
2013-12-17,64,57,52,16,14,10,22,18,12,0.00,40.00,13,6,19,0.00
2013-12-18,63,54,46,30,17,12,53,24,17,0.00,40.00,20,7,33,0.00
2013-12-19,46,40,35,36,30,20,85,70,48,0.00,40.00,36,23,46,0.00
2013-12-20,44,38,32,21,13,4,54,38,19,0.00,40.00,32,14,42,0.00
2013-12-21,56,48,41,29,21,-100,48,36,27,0.00,40.00,14,4,19,0.00
2013-12-22,56,49,43,28,24,21,48,39,27,0.00,40.00,6,1,10,0.00
2013-12-23,56,49,45,29,25,21,49,39,32,0.00,40.00,11,3,15,0.00
2013-12-24,61,52,46,28,26,22,50,37,23,0.00,40.00,14,6,22,0.00
2013-12-25,55,50,46,26,18,7,41,29,17,0.00,40.00,17,10,26,0.00
2013-12-26,57,52,48,9,4,0,19,14,10,0.00,40.00,10,8,19,0.00
2013-12-27,65,56,49,5,0,-5,13,10,7,0.00,40.00,12,5,15,0.00
2013-12-28,56,53,47,6,0,-100,16,11,10,0.00,40.00,24,12,34,0.00
2013-12-29,54,48,41,10,4,-4,25,17,12,0.00,40.00,17,7,29,0.00
2013-12-30,61,50,44,4,1,-1,16,13,9,0.00,40.00,8,2,19,0.00
2013-12-31,58,51,44,7,2,-4,17,14,10,0.00,40.00,7,2,11,0.00
2014-1-1,62,53,48,20,10,-4,28,18,10,0.00,40.00,10,6,15,0.00
2014-1-2,59,53,48,21,18,14,30,25,20,0.00,40.00,6,2,11,0.00